Regional Weather Roundup
Issued by NWS Goodland, KS

Home | Current Version | Previous Version | Text Only | Print | Product List | Glossary Off
Versions: 1 2 3 4 5 6 7 8 9 10 11 12 13 14 15 16 17 18 19 20 21 22 23 24 25 26 27 28 29 30 31 32 33 34 35 36 37 38 39 40 41 42 43 44 45 46 47 48 49 50

000
ASUS43 KGLD 252159
RWRGLD

GOODLAND FORECAST AREA HOURLY WEATHER ROUNDUP
NATIONAL WEATHER SERVICE GOODLAND KS
300 PM MST SUN JAN 25 2015

...OFFICIAL OBSERVATIONS...

CITY           SKY/WX    TMP DP  RH WIND       PRES   REMARKS
GOODLAND KS    SUNNY     55  29  36 N15G23    30.09R
HILL CITY KS   SUNNY     53  23  31 N17       30.09R
IMPERIAL NEB   SUNNY     54  28  36 NW17      30.06R
MCCOOK NEB     SUNNY     55  19  24 N16       30.05S
AKRON CO       MOSUNNY   50  32  50 W9        30.09F
BURLINGTON CO  PTSUNNY   53  31  42 N13G20    30.10R
LIMON CO       SUNNY     54  26  34 N10       30.13S
$$

...UNOFFICIAL OBSERVATIONS...

CITY           SKY/WX    TMP DP  RH WIND       PRES   REMARKS
COLBY KS       SUNNY     55  27  33 NW22G28   30.08R
GOVE KS          N/A     54  32  43 MISG        N/A
NORTON KS      SUNNY     50  19  29 NW15G22   30.06R
KIT CARSON CO    N/A     56  31  39 MISG        N/A
YUMA CO          N/A     52  33  48 N14         N/A
$$



USA.gov is the U.S. government's official web portal to all federal, state and local government web resources and services.